{"data":{"norad_id":68321,"epoch":"2026-05-24T19:22:46.448256Z","epoch_age_seconds":98464,"freshness":"FRESH","line1":"1 68321U 26059A   26144.80748204  .00018360  00000+0  63033-3 0  9997","line2":"2 68321  53.1571 354.4155 0000693  93.0206 267.0874 15.30207725  9835","mean_motion":15.30207725,"eccentricity":6.93e-5,"inclination_deg":53.1571,"raan_deg":354.4155,"arg_perigee_deg":93.0206,"mean_anomaly_deg":267.0874,"bstar":0.00063033,"rev_number":983,"period_min":94.104870631208,"perigee_km":474.71706835882,"apogee_km":475.66693975878,"semimajor_km":6853.3290040588,"source":"CELESTRAK","updated_at":"2026-05-25T13:38:21.921093Z"}}